Weather History for KOZR - April, 2013

Change the Weather History Date:

Sunday, April 21, 2013

  Actual Average Record
Temperature  
Mean Temperature 57 °F -  
Max Temperature 72 °F 75 °F 88 °F (2011)
Min Temperature 42 °F 52 °F 42 °F (2013)
Degree Days  
Heating Degree Days 8    
Growing Degree Days 7 (Base 50)    
Moisture  
Dew Point 43 °F    
Average Humidity 59    
Maximum Humidity 88    
Minimum Humidity 34    
Precipitation  
Precipitation 0.00 in - - ()
Sea Level Pressure  
Sea Level Pressure 30.20 in    
Wind  
Wind Speed 8 mph (NE)    
Max Wind Speed 17 mph    
Max Gust Speed 24 mph    
Visibility 10 miles    
Events      
Averages and records for this station are not official NWS values.
T = Trace of Precipitation, MM = Missing Value Source: NWS Daily Summary

Daily Weather History Graph

Daily Weather History Graph

Search for Another Location

Airport or City:

Trip Planner

Search our weather history database for the weather conditions in past years. The results will help you decide how hot, cold, wet, or windy it might be!

Date:

Astronomy

Apr. 21, 2013 Rise Set
Actual Time 6:07 AM CDT 7:15 PM CDT
Civil Twilight 5:42 AM CDT 7:40 PM CDT
Nautical Twilight 5:12 AM CDT 8:10 PM CDT
Astronomical Twilight 4:41 AM CDT 8:41 PM CDT
Moon 3:15 PM CDT (4/21) 3:12 AM CDT (4/21)
Length of Visible Light 13h 58m
Length of Day
13h 07m
Waxing Gibbous, 80% of the Moon is Illuminated
Apr 21
Waxing Gibbous
Apr 25
Full
May 2
Last Quarter
May 9
New
May 17
First Quarter

Hourly Weather History & Observations

Time (CDT) Temp. Windchill Dew Point Humidity Pressure Visibility Wind Dir Wind Speed Gust Speed Precip Events Conditions
12:58 AM 47.5 °F - 43.3 °F 86% 30.22 in 10.0 mi NNW 2.3 mph - N/A   Clear
1:56 AM 44.6 °F 41.4 °F 41.0 °F 87% 30.20 in 10.0 mi NE 5.8 mph - N/A   Clear
2:58 AM 45.3 °F 41.6 °F 41.5 °F 87% 30.20 in 10.0 mi NNE 6.9 mph - N/A   Clear
3:58 AM 45.3 °F 42.3 °F 40.5 °F 83% 30.21 in 10.0 mi NNE 5.8 mph - N/A   Clear
4:58 AM 42.4 °F 38.1 °F 39.2 °F 88% 30.21 in 10.0 mi NE 6.9 mph - N/A   Clear
5:58 AM 43.7 °F 39.1 °F 39.9 °F 87% 30.22 in 10.0 mi NE 8.1 mph - N/A   Clear
6:58 AM 45.0 °F 40.6 °F 40.5 °F 84% 30.23 in 10.0 mi NE 8.1 mph - N/A   Clear
7:58 AM 49.5 °F - 43.2 °F 79% 30.25 in 10.0 mi NE 6.9 mph - N/A   Clear
8:58 AM 55.6 °F - 47.3 °F 74% 30.25 in 10.0 mi NNE 5.8 mph - N/A   Clear
9:58 AM 62.2 °F - 49.3 °F 63% 30.25 in 10.0 mi ENE 10.4 mph - N/A   Partly Cloudy
10:58 AM 65.1 °F - 43.9 °F 46% 30.24 in 10.0 mi NE 17.3 mph 24.2 mph N/A   Clear
11:13 AM 66.2 °F - 44.6 °F 46% 30.22 in 10.0 mi NE 16.1 mph 20.7 mph N/A   Clear
11:58 AM 68.0 °F - 42.6 °F 40% 30.23 in 10.0 mi East 10.4 mph - N/A   Clear
12:22 PM 68.0 °F - 42.8 °F 40% 30.21 in 10.0 mi East 11.5 mph - N/A   Clear
12:58 PM 69.3 °F - 44.1 °F 40% 30.21 in 10.0 mi ENE 10.4 mph 17.3 mph N/A   Clear
1:58 PM 70.9 °F - 44.4 °F 39% 30.21 in 10.0 mi ENE 12.7 mph 16.1 mph N/A   Clear
2:58 PM 72.0 °F - 43.2 °F 35% 30.18 in 10.0 mi ENE 12.7 mph 16.1 mph N/A   Clear
3:58 PM 72.3 °F - 43.2 °F 35% 30.16 in 10.0 mi ENE 10.4 mph 17.3 mph N/A   Clear
4:58 PM 72.3 °F - 42.1 °F 34% 30.16 in 10.0 mi NE 11.5 mph - N/A   Clear
5:58 PM 71.1 °F - 41.2 °F 34% 30.17 in 10.0 mi ENE 11.5 mph - N/A   Clear
6:58 PM 66.6 °F - 43.0 °F 42% 30.17 in 10.0 mi ENE 5.8 mph - N/A   Clear
7:58 PM 62.1 °F - 44.8 °F 53% 30.18 in 4.0 mi NNE 5.8 mph - N/A   Haze
8:58 PM 61.2 °F - 43.5 °F 52% 30.19 in 10.0 mi NE 6.9 mph - N/A   Clear
9:58 PM 57.9 °F - 43.7 °F 59% 30.19 in 10.0 mi NE 6.9 mph - N/A   Clear
10:58 PM 57.0 °F - 45.0 °F 64% 30.18 in 10.0 mi NE 6.9 mph - N/A   Overcast
11:58 PM 57.0 °F - 44.4 °F 63% 30.17 in 10.0 mi NE 8.1 mph - N/A   Partly Cloudy